Location: Eschertshofen
(49.3064°N, 11.5756°E)
Time: 14:18:22
(UTC+00:00)

CSL-04 Rocket - Pass Details

Date: 18 September 2020
Orbit: 806 x 860 km, 98.9° (Epoch: 27 October)

Event Time Altitude Azimuth Distance (km) Brightness Sun altitude
Rises 18:26:06 0° 175° (S) 3,355 6.6 -11.5°
Reaches altitude 10° 18:28:28 10° 180° (S) 2,434 5.9 -11.9°
Maximum altitude 18:33:47 58° 259° (WSW) 981 4.4 -12.7°
Drops below altitude 10° 18:39:13 10° 338° (NNW) 2,486 6.7 -13.6°
Sets 18:41:40 0° 342° (NNW) 3,432 7.4 -13.9°
